GW2646 Weather Reports


Display with metric or nautical units.
time (UTC)temp
F
wind
direction
speed
MPH
gust
MPH
rain 1hr
in
rain 24hr
in
rain mn
in
humidity
%
barometer
mb
20260906000548 73 200 0.0 6.0 0.00 0.29 0.01 48 1016.0
20260906000107 72 0 0.0 6.0 0.00 0.29 0.01 49 1016.0
20260905235546 72 199 3.0 6.0 0.00 0.31 0.01 49 1016.0
20260905235049 73 278 1.0 5.0 0.00 0.31 0.01 47 1016.1
20260905234618 72 0 1.0 8.0 0.00 0.31 0.01 48 1016.2
20260905234048 71 198 1.0 8.0 0.00 0.31 0.01 49 1016.2
20260905233547 72 298 1.0 7.0 0.00 0.31 0.01 49 1016.2
20260905233102 72 0 1.0 8.0 0.00 0.31 0.01 50 1016.2
20260905232546 73 207 2.0 8.0 0.00 0.31 0.01 51 1016.2
20260905232046 72 211 4.0 8.0 0.00 0.31 0.01 52 1016.3
20260905231557 71 189 2.0 12.0 0.00 0.31 0.01 52 1016.2
20260905231049 71 151 4.0 12.0 0.00 0.31 0.01 51 1016.3
20260905230547 71 0 4.0 9.0 0.00 0.31 0.01 51 1016.3
20260905225548 72 203 3.0 10.0 0.00 0.31 0.01 47 1016.4
20260905225047 74 0 3.0 10.0 0.00 0.31 0.01 44 1016.4
20260905224606 74 215 1.0 6.0 0.00 0.31 0.01 48 1016.4
20260905224046 73 186 0.0 8.0 0.00 0.31 0.01 48 1016.5
20260905223546 73 216 3.0 9.0 0.00 0.31 0.01 47 1016.5
20260905223100 73 182 4.0 9.0 0.00 0.31 0.01 47 1016.6
20260905222549 72 211 3.0 10.0 0.00 0.31 0.01 47 1016.6
20260905222044 74 165 5.0 13.0 0.00 0.31 0.01 45 1016.6
20260905221605 73 150 5.0 13.0 0.00 0.31 0.01 47 1016.7
20260905221047 72 150 3.0 10.0 0.00 0.31 0.01 48 1016.7
20260905220551 73 0 1.0 8.0 0.00 0.31 0.01 48 1016.8
20260905220059 72 193 4.0 10.0 0.00 0.31 0.01 49 1016.8
20260905215548 73 173 3.0 10.0 0.00 0.31 0.01 49 1016.8
20260905215046 73 180 3.0 8.0 0.00 0.31 0.01 50 1016.8
20260905214606 71 325 1.0 6.0 0.00 0.31 0.01 52 1016.7
20260905214047 71 244 1.0 7.0 0.00 0.31 0.01 51 1016.7
20260905213547 73 215 2.0 8.0 0.00 0.31 0.01 49 1016.8
20260905213114 72 222 2.0 8.0 0.00 0.31 0.01 50 1016.8
20260905212545 70 292 3.0 8.0 0.00 0.31 0.01 52 1016.7
20260905212046 70 259 2.0 6.0 0.00 0.31 0.01 53 1016.9
20260905211601 70 252 2.0 6.0 0.00 0.31 0.01 52 1016.8
20260905211048 70 190 1.0 7.0 0.00 0.31 0.01 53 1016.9
20260905210548 69 242 2.0 7.0 0.00 0.31 0.01 52 1017.0
20260905210106 71 179 4.0 9.0 0.00 0.31 0.01 51 1017.0
20260905205547 71 159 3.0 9.0 0.00 0.31 0.01 53 1017.0
20260905205049 72 171 0.0 7.0 0.00 0.31 0.01 54 1016.9
20260905204558 71 165 3.0 7.0 0.00 0.31 0.01 52 1017.0
20260905204046 70 171 2.0 7.0 0.00 0.31 0.01 56 1017.1
20260905203550 71 163 3.0 7.0 0.00 0.31 0.01 53 1017.1
20260905203103 70 149 1.0 7.0 0.00 0.31 0.01 59 1017.1
20260905202546 69 0 0.0 7.0 0.00 0.31 0.01 60 1017.0
20260905202049 68 225 4.0 7.0 0.00 0.31 0.01 59 1017.1
20260905201606 68 235 2.0 6.0 0.00 0.31 0.01 62 1017.1
20260905201046 67 0 1.0 5.0 0.00 0.31 0.01 62 1017.1
20260905200546 68 241 1.0 5.0 0.00 0.31 0.01 63 1017.1
20260905195546 68 245 0.0 4.0 0.00 0.31 0.01 63 1017.1
20260905195046 66 209 2.0 5.0 0.00 0.31 0.01 65 1017.2
20260905194603 66 234 1.0 5.0 0.00 0.31 0.01 65 1017.2
20260905194046 67 234 1.0 6.0 0.00 0.31 0.01 65 1017.2
20260905193547 66 0 1.0 7.0 0.00 0.31 0.01 67 1017.2
20260905193102 65 322 0.0 7.0 0.00 0.31 0.01 67 1017.2
20260905192547 65 0 2.0 7.0 0.00 0.31 0.01 64 1017.3
20260905192047 65 186 1.0 6.0 0.00 0.31 0.01 68 1017.4
20260905191612 65 281 0.0 5.0 0.00 0.31 0.01 68 1017.4
20260905191045 65 0 1.0 5.0 0.00 0.31 0.01 68 1017.4
20260905190549 66 219 0.0 5.0 0.00 0.31 0.01 68 1017.4
20260905190104 65 0 2.0 8.0 0.00 0.31 0.01 68 1017.5
20260905185549 65 0 2.0 8.0 0.00 0.31 0.01 70 1017.4
20260905185048 65 196 0.0 6.0 0.00 0.31 0.01 71 1017.6
20260905184616 65 186 3.0 6.0 0.00 0.31 0.01 71 1017.6
20260905184046 64 149 0.0 7.0 0.00 0.31 0.01 71 1017.5
20260905183549 64 145 0.0 7.0 0.00 0.31 0.01 71 1017.6
20260905183102 64 172 3.0 7.0 0.00 0.31 0.01 69 1017.6
20260905182550 64 139 2.0 7.0 0.00 0.31 0.01 71 1017.7
20260905182050 63 153 1.0 7.0 0.00 0.31 0.01 73 1017.6
20260905181558 63 159 3.0 7.0 0.00 0.31 0.01 74 1017.7
20260905181045 63 0 1.0 7.0 0.00 0.31 0.01 74 1017.8
20260905180547 63 0 1.0 6.0 0.00 0.31 0.01 74 1017.9
20260905175547 62 175 1.0 6.0 0.00 0.31 0.01 76 1017.8
20260905175047 62 0 0.0 6.0 0.00 0.31 0.01 76 1017.9
20260905174609 62 170 0.0 6.0 0.00 0.31 0.01 78 1017.8
20260905174046 62 169 2.0 6.0 0.00 0.31 0.01 77 1018.0
20260905173547 61 0 2.0 6.0 0.00 0.31 0.01 75 1017.9
20260905173109 61 148 2.0 6.0 0.00 0.31 0.01 76 1017.8
20260905172549 61 0 1.0 5.0 0.00 0.31 0.01 79 1018.0
20260905172046 60 275 0.0 2.0 0.00 0.31 0.01 85 1017.9
20260905171559 59 0 0.0 3.0 0.01 0.31 0.01 86 1018.0
20260905171049 58 0 0.0 3.0 0.01 0.31 0.01 86 1017.9
20260905170547 58 0 0.0 3.0 0.01 0.31 0.01 87 1017.9
20260905170100 58 0 0.0 3.0 0.01 0.31 0.01 87 1018.0
20260905165546 57 275 0.0 3.0 0.01 0.31 0.01 87 1018.0
20260905165046 57 0 0.0 3.0 0.01 0.31 0.01 88 1018.0
20260905164600 57 273 0.0 4.0 0.01 0.31 0.01 90 1017.9
20260905164047 56 259 0.0 4.0 0.01 0.31 0.01 89 1017.8
20260905163546 56 0 1.0 4.0 0.01 0.31 0.01 92 1017.8
20260905163106 55 0 0.0 4.0 0.01 0.31 0.01 94 1017.7
20260905162547 55 0 0.0 3.0 0.01 0.31 0.01 95 1017.7
20260905162046 54 0 0.0 3.0 0.01 0.31 0.01 96 1017.7
20260905161559 54 147 0.0 2.0 0.00 0.30 0.00 97 1017.6
20260905161048 54 0 0.0 0.0 0.00 0.30 0.00 98 1017.5
20260905160545 53 0 0.0 0.0 0.00 0.30 0.00 98 1017.5
20260905160100 53 0 0.0 0.0 0.00 0.30 0.00 98 1017.5
20260905155548 52 0 0.0 0.0 0.00 0.30 0.00 98 1017.5
20260905155046 52 0 0.0 0.0 0.00 0.30 0.00 98 1017.4
20260905154557 52 0 0.0 0.0 0.00 0.30 0.00 98 1017.4
20260905154046 51 0 0.0 0.0 0.00 0.30 0.00 98 1017.5
20260905153545 51 0 0.0 0.0 0.00 0.30 0.00 98 1017.5
20260905153102 51 0 0.0 0.0 0.00 0.30 0.00 98 1017.4
20260905152549 51 0 0.0 0.0 0.00 0.30 0.00 98 1017.5
20260905152047 50 0 0.0 0.0 0.00 0.30 0.00 98 1017.4
20260905151604 50 0 0.0 0.0 0.00 0.30 0.00 98 1017.5
20260905151047 50 0 0.0 0.0 0.00 0.30 0.00 98 1017.4
20260905150546 49 0 0.0 0.0 0.00 0.30 0.00 98 1017.4
20260905150058 49 0 0.0 0.0 0.00 0.30 0.00 98 1017.4
20260905145547 49 0 0.0 0.0 0.00 0.30 0.00 98 1017.4
20260905145047 49 0 0.0 0.0 0.00 0.30 0.00 98 1017.4
20260905144558 49 0 0.0 0.0 0.00 0.30 0.00 98 1017.4
20260905144050 49 0 0.0 0.0 0.00 0.30 0.00 97 1017.4
20260905143550 49 0 0.0 0.0 0.00 0.30 0.00 97 1017.3
20260905143059 49 0 0.0 0.0 0.00 0.30 0.00 97 1017.2
20260905142546 49 0 0.0 0.0 0.00 0.30 0.00 97 1017.2
20260905142051 49 0 0.0 0.0 0.00 0.30 0.00 97 1017.2
20260905141613 49 0 0.0 0.0 0.00 0.30 0.00 97 1017.2
20260905141046 49 0 0.0 0.0 0.00 0.30 0.00 97 1017.1
20260905140547 49 0 0.0 0.0 0.00 0.30 0.00 97 1017.1
20260905140103 49 0 0.0 0.0 0.00 0.30 0.00 97 1017.1
20260905135548 49 0 0.0 0.0 0.00 0.30 0.00 97 1017.1
20260905135048 49 0 0.0 0.0 0.00 0.30 0.00 97 1017.0
20260905134607 49 0 0.0 0.0 0.00 0.30 0.00 97 1016.9
20260905134046 49 0 0.0 0.0 0.00 0.30 0.00 97 1016.8
20260905133546 49 0 0.0 0.0 0.00 0.30 0.00 97 1016.8
20260905133059 49 0 0.0 0.0 0.00 0.30 0.00 97 1016.9
20260905132547 49 0 0.0 0.0 0.00 0.30 0.00 97 1016.8
20260905132047 49 0 0.0 0.0 0.00 0.30 0.00 97 1016.9
20260905131606 49 0 0.0 0.0 0.00 0.30 0.00 97 1016.9
20260905131046 49 0 0.0 0.0 0.00 0.30 0.00 97 1016.9
20260905130547 49 0 0.0 0.0 0.00 0.30 0.00 97 1016.9
20260905130106 49 0 0.0 0.0 0.00 0.30 0.00 97 1016.9
20260905125547 49 0 0.0 0.0 0.00 0.30 0.00 97 1016.9
20260905125047 49 0 0.0 0.0 0.00 0.30 0.00 97 1016.9
20260905124601 49 0 0.0 0.0 0.00 0.30 0.00 97 1016.9
20260905124044 49 0 0.0 0.0 0.00 0.30 0.00 97 1016.9
20260905123548 49 0 0.0 0.0 0.00 0.30 0.00 97 1017.0
20260905123103 50 0 0.0 0.0 0.00 0.30 0.00 97 1017.0
20260905122546 50 0 0.0 0.0 0.00 0.30 0.00 97 1017.0
20260905122046 50 0 0.0 0.0 0.00 0.30 0.00 97 1017.0
20260905121555 50 0 0.0 0.0 0.00 0.30 0.00 97 1016.9
20260905121046 50 0 0.0 0.0 0.00 0.30 0.00 97 1016.9
20260905120545 50 0 0.0 0.0 0.00 0.30 0.00 97 1016.9
20260905120103 50 0 0.0 0.0 0.00 0.30 0.00 97 1016.9
20260905115550 50 0 0.0 0.0 0.00 0.30 0.00 97 1016.8
20260905115050 50 0 0.0 0.0 0.00 0.30 0.00 97 1016.7
20260905114637 50 0 0.0 0.0 0.00 0.30 0.00 97 1016.7
20260905114046 50 0 0.0 0.0 0.00 0.30 0.00 97 1016.7
20260905113547 51 0 0.0 0.0 0.00 0.30 0.00 97 1016.7
20260905113059 51 0 0.0 0.0 0.00 0.30 0.00 97 1016.6
20260905112546 51 0 0.0 0.0 0.00 0.30 0.00 97 1016.5
20260905112046 52 0 0.0 0.0 0.00 0.30 0.00 97 1016.6
20260905111559 52 0 0.0 0.0 0.00 0.30 0.00 97 1016.5
20260905111047 52 0 0.0 0.0 0.00 0.30 0.00 98 1016.6
20260905110546 51 0 0.0 0.0 0.00 0.30 0.00 98 1016.6
20260905110059 51 0 0.0 0.0 0.00 0.30 0.00 97 1016.6
20260905105547 51 0 0.0 0.0 0.00 0.32 0.00 97 1016.5
20260905105046 50 0 0.0 0.0 0.00 0.32 0.00 97 1016.6
20260905104558 50 0 0.0 0.0 0.00 0.32 0.00 97 1016.7
20260905104046 50 0 0.0 0.0 0.00 0.32 0.00 97 1016.7
20260905103546 50 0 0.0 0.0 0.00 0.32 0.00 97 1016.7
20260905103058 51 0 0.0 0.0 0.00 0.32 0.00 97 1016.7
20260905102546 50 0 0.0 0.0 0.00 0.32 0.00 97 1016.7
20260905102048 51 0 0.0 0.0 0.00 0.32 0.00 97 1016.7
20260905101602 51 0 0.0 0.0 0.00 0.32 0.00 97 1016.6
20260905101046 51 0 0.0 0.0 0.00 0.32 0.00 97 1016.7
20260905100547 51 0 0.0 0.0 0.00 0.32 0.00 97 1016.6
20260905100113 51 0 0.0 0.0 0.00 0.32 0.00 97 1016.6
20260905095546 51 0 0.0 0.0 0.00 0.32 0.00 97 1016.7
20260905095050 51 0 0.0 0.0 0.00 0.32 0.00 97 1016.6
20260905094610 51 0 0.0 0.0 0.00 0.32 0.00 97 1016.7
20260905094047 51 0 0.0 0.0 0.00 0.32 0.00 97 1016.6
20260905093547 51 0 0.0 0.0 0.00 0.32 0.00 97 1016.6
20260905093104 51 0 0.0 0.0 0.00 0.32 0.00 97 1016.6
20260905092549 51 0 0.0 0.0 0.00 0.32 0.00 97 1016.5
20260905092047 51 0 0.0 0.0 0.00 0.32 0.00 97 1016.5
20260905091614 51 0 0.0 0.0 0.00 0.32 0.00 97 1016.5
20260905091045 51 0 0.0 0.0 0.00 0.32 0.00 97 1016.4
20260905090546 51 0 0.0 0.0 0.00 0.32 0.00 97 1016.5
20260905090057 51 0 0.0 0.0 0.00 0.32 0.00 97 1016.4
20260905085547 51 0 0.0 0.0 0.00 0.32 0.00 97 1016.4
20260905085046 51 0 0.0 0.0 0.00 0.32 0.00 97 1016.4
20260905084603 51 0 0.0 0.0 0.00 0.32 0.00 97 1016.4
20260905084045 51 0 0.0 0.0 0.00 0.32 0.00 97 1016.3
20260905083554 51 0 0.0 0.0 0.00 0.32 0.00 97 1016.3
20260905083103 52 0 0.0 0.0 0.00 0.32 0.00 96 1016.3
20260905082547 52 0 0.0 0.0 0.00 0.32 0.00 96 1016.4
20260905082047 52 0 0.0 0.0 0.00 0.32 0.00 96 1016.3
20260905081603 52 0 0.0 0.0 0.00 0.32 0.00 96 1016.2
20260905081046 52 0 0.0 0.0 0.00 0.32 0.00 96 1016.4
20260905080546 52 0 0.0 0.0 0.00 0.32 0.00 96 1016.3
20260905080057 52 0 0.0 0.0 0.00 0.32 0.00 97 1016.3
20260905075547 52 0 0.0 0.0 0.00 0.32 0.00 97 1016.3
20260905075046 52 0 0.0 0.0 0.00 0.32 0.00 96 1016.3
20260905074605 52 0 0.0 0.0 0.00 0.32 0.00 97 1016.3
20260905074047 52 0 0.0 0.0 0.00 0.32 0.00 96 1016.2
20260905073549 52 0 0.0 0.0 0.00 0.32 0.00 96 1016.3
20260905073109 52 0 0.0 0.0 0.00 0.32 0.00 96 1016.2
20260905072546 52 0 0.0 0.0 0.00 0.32 0.00 96 1016.1
20260905072046 52 0 0.0 0.0 0.00 0.32 0.00 96 1016.1
20260905071602 52 0 0.0 0.0 0.00 0.32 0.00 96 1016.2
20260905071050 52 0 0.0 0.0 0.00 0.32 0.00 96 1016.2
20260905070546 52 0 0.0 0.0 0.00 0.32 0.00 96 1016.1
20260905070105 52 0 0.0 0.0 0.00 0.32 0.00 96 1016.1
20260905065546 52 0 0.0 0.0 0.00 0.32 0.32 96 1016.1
20260905065051 52 0 0.0 0.0 0.00 0.32 0.32 96 1016.1
20260905064616 52 0 0.0 0.0 0.00 0.32 0.32 96 1016.1
20260905064047 52 0 0.0 0.0 0.00 0.32 0.32 96 1016.1
20260905063547 52 0 0.0 0.0 0.00 0.32 0.32 96 1016.1
20260905063106 52 0 0.0 0.0 0.00 0.32 0.32 96 1016.0
20260905062546 52 0 0.0 0.0 0.00 0.32 0.32 96 1016.0
20260905062046 52 0 0.0 0.0 0.00 0.32 0.32 96 1016.0
20260905061619 52 0 0.0 0.0 0.00 0.32 0.32 96 1016.1
20260905061048 52 0 0.0 0.0 0.00 0.32 0.32 96 1016.1
20260905060546 52 0 0.0 0.0 0.00 0.32 0.32 96 1016.1
20260905060104 52 0 0.0 0.0 0.00 0.32 0.32 95 1016.0
20260905055548 52 0 0.0 0.0 0.00 0.32 0.32 96 1016.1
20260905055049 52 0 0.0 0.0 0.00 0.32 0.32 96 1016.1
20260905054603 52 0 0.0 0.0 0.00 0.32 0.32 95 1016.1
20260905054045 53 0 0.0 0.0 0.00 0.32 0.32 95 1016.1
20260905053548 53 0 0.0 0.0 0.00 0.32 0.32 95 1016.1
20260905053100 53 0 0.0 0.0 0.00 0.32 0.32 95 1016.1
20260905052546 53 0 0.0 0.0 0.00 0.32 0.32 95 1016.1
20260905052045 53 0 0.0 0.0 0.00 0.32 0.32 95 1016.1
20260905051611 53 0 0.0 0.0 0.00 0.32 0.32 95 1016.0
20260905051046 53 0 0.0 0.0 0.00 0.32 0.32 95 1016.0
20260905050545 53 0 0.0 1.0 0.00 0.32 0.32 95 1015.9
20260905050119 53 0 0.0 1.0 0.00 0.32 0.32 95 1015.9
20260905045547 54 0 0.0 2.0 0.00 0.32 0.32 95 1015.8
20260905045048 54 0 0.0 2.0 0.00 0.32 0.32 95 1015.9
20260905044603 54 0 0.0 1.0 0.00 0.32 0.32 95 1015.9
20260905044052 54 0 0.0 2.0 0.00 0.32 0.32 95 1016.0
20260905043548 54 0 0.0 3.0 0.00 0.32 0.32 95 1016.0
20260905043108 54 0 0.0 3.0 0.00 0.32 0.32 95 1015.9
20260905042550 54 0 0.0 0.0 0.00 0.32 0.32 94 1015.8
20260905042046 54 0 0.0 1.0 0.00 0.32 0.32 94 1015.7
20260905041603 55 0 0.0 4.0 0.00 0.32 0.32 94 1015.8
20260905041046 55 0 0.0 4.0 0.00 0.32 0.32 95 1015.8
20260905040546 55 147 2.0 4.0 0.00 0.32 0.32 95 1015.8
20260905040105 55 0 0.0 4.0 0.00 0.32 0.32 95 1015.9
20260905035546 55 147 2.0 4.0 0.00 0.32 0.32 95 1015.8
20260905035045 55 147 0.0 4.0 0.00 0.32 0.32 94 1015.7
20260905034613 54 0 0.0 4.0 0.00 0.32 0.32 95 1015.8
20260905034046 54 147 1.0 4.0 0.00 0.32 0.32 95 1015.8
20260905033547 54 0 0.0 0.0 0.00 0.32 0.32 94 1015.6
20260905033110 54 0 0.0 1.0 0.00 0.32 0.32 94 1015.4
20260905032550 54 0 0.0 1.0 0.00 0.32 0.32 94 1015.5
20260905032046 54 0 0.0 1.0 0.00 0.32 0.32 94 1015.5
20260905031615 55 0 0.0 0.0 0.00 0.32 0.32 94 1015.5
20260905031046 55 0 0.0 0.0 0.00 0.32 0.32 94 1015.5
20260905030546 55 0 0.0 0.0 0.00 0.32 0.32 94 1015.6
20260905030112 55 0 0.0 1.0 0.00 0.32 0.32 94 1015.5
20260905025548 55 0 0.0 1.0 0.00 0.32 0.32 94 1015.6
20260905025049 55 0 0.0 2.0 0.00 0.32 0.32 94 1015.7
20260905024605 55 0 0.0 3.0 0.00 0.32 0.32 93 1015.7
20260905024047 55 0 0.0 3.0 0.00 0.32 0.32 93 1015.7
20260905023547 56 0 0.0 2.0 0.01 0.32 0.32 93 1015.7
20260905023138 56 0 0.0 4.0 0.01 0.32 0.32 93 1015.7
20260905022547 56 0 0.0 8.0 0.01 0.32 0.32 93 1015.8
20260905022046 56 127 1.0 11.0 0.02 0.32 0.32 93 1015.8
20260905021605 56 137 4.0 11.0 0.02 0.32 0.32 92 1015.9
20260905021046 57 0 2.0 11.0 0.02 0.32 0.32 92 1015.8
20260905020547 57 159 4.0 13.0 0.02 0.32 0.32 93 1015.9
20260905020105 57 132 4.0 13.0 0.02 0.32 0.32 93 1015.8
20260905015546 57 132 3.0 11.0 0.04 0.32 0.32 93 1015.8
20260905015047 57 150 1.0 11.0 0.05 0.32 0.32 94 1015.6
20260905014606 57 146 5.0 11.0 0.07 0.32 0.32 93 1015.5
20260905014050 58 176 3.0 5.0 0.11 0.32 0.32 94 1015.3
20260905013550 57 187 0.0 2.0 0.13 0.31 0.31 94 1015.1
20260905013109 57 0 0.0 0.0 0.18 0.31 0.31 93 1014.8
20260905012547 57 0 0.0 0.0 0.23 0.31 0.31 93 1014.7
20260905012046 57 0 0.0 0.0 0.24 0.30 0.30 93 1014.7
20260905011607 57 0 0.0 0.0 0.25 0.30 0.30 93 1014.7
20260905011050 57 0 0.0 1.0 0.26 0.30 0.30 92 1014.5
20260905010545 57 0 0.0 1.0 0.26 0.30 0.30 92 1014.4
20260905010107 57 0 0.0 1.0 0.26 0.30 0.30 91 1014.3
20260905005552 57 0 0.0 2.0 0.25 0.28 0.28 90 1014.3
20260905005047 58 0 0.0 2.0 0.25 0.27 0.27 89 1014.3
20260905004606 58 188 0.0 2.0 0.23 0.25 0.25 90 1014.3
20260905004044 59 0 0.0 2.0 0.19 0.21 0.21 90 1014.4
20260905003547 60 0 0.0 2.0 0.15 0.17 0.17 89 1014.2
20260905003101 60 188 0.0 2.0 0.11 0.13 0.13 88 1014.2
20260905002548 61 0 0.0 2.0 0.06 0.08 0.08 88 1014.2
20260905002049 61 0 0.0 2.0 0.04 0.06 0.06 87 1014.3
20260905001609 62 0 0.0 2.0 0.03 0.05 0.05 86 1014.1
20260905001047 62 0 0.0 3.0 0.02 0.04 0.04 86 1014.0